Location: �le Saint-Martin
(47.2571°N, 0.2723°E)
Time: 10:59:17
(UTC+00:00)

Daily predictions for brighter satellites

Satellite Brightness Start Highest point End
(mag) Time Altitude Azimuth Time Altitude Azimuth Time Altitude Azimuth
USA 229 DEB 4.0 16:27:41 10° NW 16:34:57 67° NE 16:42:41 10° SE
USA 229 4.0 16:27:47 10° NW 16:35:02 67° NE 16:42:46 10° SE
Cosmos 1500 Rocket 3.9 16:35:37 10° N 16:39:55 45° ENE 16:44:08 10° SSE
Nadezhda 4 Rocket 4.1 16:35:28 10° N 16:41:47 67° ENE 16:48:05 10° SSE
SL-24 R/B - RUBIN 2 4.4 16:37:42 10° NNW 16:41:48 30° NE 16:45:41 10° E
ATLAS 2AS CENTAUR R/B 4.2 16:35:51 10° WNW 16:42:19 28° NNW 16:48:34 10° NE
Cosmos 2322 Rocket 4.0 16:41:01 10° NNE 16:42:41 11° NNE 16:44:22 10° NE
SeaSat 1 3.9 16:38:40 10° NNE 16:43:02 32° NW 16:47:23 10° WSW
Cosmos 990 Rocket 4.0 16:38:35 10° NNW 16:43:48 69° ENE 16:48:56 10° SSE
Cosmos 1697 Rocket 2.8 16:40:29 10° NNW 16:46:01 54° ENE 16:51:30 10° SE
FengYun 1-2 T 4.3 16:40:53 10° SSE 16:46:20 57° ENE 16:51:45 10° N
Cosmos 1271 Rocket 4.2 16:43:34 10° SW 16:47:18 40° WNW 16:51:06 10° N
Sich 1 3.9 16:45:52 10° NNE 16:49:33 27° ENE 16:53:14 10° SE
NOAA 6 4.3 16:44:50 10° SE 16:49:45 48° ENE 16:54:40 10° N
Cosmos 1980 Rocket 2.8 16:45:01 10° NNW 16:50:10 34° NE 16:55:16 10° ESE
Cosmos 2221 2.6 16:47:10 10° S 16:51:27 83° W 16:55:47 10° N
Cosmos 1805 Rocket 4.1 16:47:36 10° N 16:51:37 35° ENE 16:55:36 10° SE
Cosmos 2369 4.1 16:46:43 10° NNW 16:52:12 43° NE 16:57:37 10° SE
CZ-4C R/B 3.3 16:49:41 10° NNW 16:56:12 42° NE 17:03:51 10° ESE
Cosmos 1842 Rocket 3.7 16:51:52 10° S 16:56:20 86° WNW 17:00:50 10° N
USA 234 3.3 16:49:51 10° ESE 16:56:22 75° NNE 17:02:54 10° NW
Cosmos 1092 Rocket 4.2 16:51:26 10° N 16:57:40 53° ENE 17:03:49 10° SSE
Cosmos 2084 3.6 16:53:54 10° NW 16:58:12 81° SW 17:02:40 10° SE
NOSS 3-1 (A) 4.2 16:51:06 10° NW 16:58:35 90° NE 17:07:23 10° SE
USA 306 3.9 16:56:08 10° WNW 17:00:00 33° N 17:03:35 11° ENE
Cosmos 1812 4.3 16:58:05 10° SE 17:00:28 16° E 17:02:43 11° NE
SL-16 R/B 3.7 16:57:31 10° N 17:01:02 16° NE 17:04:16 11° ENE
ISS -3.5 16:58:18 10° WNW 17:01:39 52° NNE 17:04:59 10° E
Meteor 1-25 Rocket 4.2 16:57:49 10° N 17:03:22 65° ENE 17:08:56 10° SSE
NOSS 2-2 (D) 4.4 16:59:18 10° NNW 17:04:09 51° NE 17:10:51 10° ESE
NOSS 2-2 (E) 4.4 16:59:25 10° NW 17:04:30 61° NE 17:11:38 10° SE
SMAP 3.0 17:01:05 10° SSE 17:05:41 64° ENE 17:10:19 10° N
Cosmos 2082 Rocket 3.0 17:00:59 10° SSE 17:05:52 31° ESE 17:10:43 10° NE
Meteor PRIRODA 3.9 17:02:44 10° S 17:06:22 70° WSW 17:09:59 10° NNW
Cosmos 1939 Rocket 2.8 17:02:48 10° SSE 17:06:54 69° ENE 17:10:58 10° N
CORIOLIS 4.2 17:03:22 10° SSE 17:08:40 63° ENE 17:14:03 10° N
Cosmos 44 Rocket 4.4 17:07:07 10° NNW 17:11:10 24° NE 17:14:23 13° E
NOAA 12 4.3 17:06:35 10° S 17:11:55 77° WSW 17:17:15 10° NNW
CZ-4B DEB 4.2 17:09:38 10° SSE 17:15:03 62° ENE 17:20:29 10° N
Cosmos 2278 4.2 17:10:54 10° NNW 17:16:14 38° NE 17:21:31 10° ESE
Cosmos 1602 3.7 17:13:04 10° N 17:16:55 63° E 17:20:45 10° SSE
USA 307 3.9 17:14:57 10° WNW 17:18:51 33° N 17:21:38 16° NE
Cosmos 1627 Rocket 4.4 17:13:01 10° N 17:19:10 65° ENE 17:25:14 10° SSE
AQUARIUS 4.1 17:15:07 10° SSE 17:19:36 73° ENE 17:24:05 10° N
Cosmos 540 Rocket 3.5 17:15:48 10° S 17:20:47 59° ESE 17:25:50 10° NNE
Cosmos 2034 Rocket 4.2 17:16:04 10° SSW 17:22:13 74° W 17:28:24 10° N
ARGOS 3.7 17:20:29 10° SE 17:25:20 35° ENE 17:30:10 10° N
Cosmos 2279 Rocket 4.4 17:20:22 10° SSE 17:26:02 38° E 17:31:41 10° NNE
COSMO-SKYMED 1 3.5 17:23:24 15° NE 17:26:12 27° E 17:29:53 10° SSE
COSMOS 2406 3.2 17:20:42 10° SSW 17:26:24 71° ESE 17:32:07 10° NNE
Cosmos 1833 Rocket 2.7 17:22:04 10° SSW 17:27:42 90° WNW 17:33:23 10° NNE
Cosmos 1782 2.8 17:25:25 10° S 17:29:20 56° E 17:33:15 10° NNE
SL-08 R/B 4.5 17:25:06 10° N 17:29:33 42° WNW 17:33:55 10° SW
Meteor 2-21 4.4 17:24:05 10° N 17:30:10 70° ENE 17:36:11 10° SSE
ATLAS 5 CENTAUR R/B 3.1 17:23:05 10° NW 17:31:15 34° NNE 17:33:09 22° ENE
ATLAS CENTAUR R/B 4.0 17:32:27 10° NW 17:34:33 13° NNW 17:36:44 10° N
Cosmos 1633 Rocket 3.5 17:30:45 10° N 17:34:48 36° ENE 17:38:51 10° SE
Cosmos 1818 4.2 17:30:19 10° NNW 17:35:24 36° NE 17:38:50 18° E
Cosmos 468 Rocket 4.3 17:30:17 10° SSW 17:35:25 67° WNW 17:40:38 10° NNE
YAOGAN 1 4.3 17:39:35 16° NNE 17:39:35 16° NNE 17:41:00 10° NNE
Cosmos 1898 Rocket 4.2 17:33:46 10° NNW 17:38:55 57° WSW 17:44:00 10° S
ERBS 4.3 17:37:47 10° NW 17:39:57 17° N 17:41:01 15° NNE
CZ-2D R/B 3.1 17:36:33 10° SSE 17:40:22 76° ENE 17:44:13 10° N
GEOS 3 Rocket 4.3 17:37:58 20° E 17:40:43 34° NE 17:45:20 10° NNW
USA 308 3.9 17:37:39 10° WNW 17:41:31 32° N 17:43:13 24° NE
Cosmos 1634 Rocket 4.0 17:36:33 10° S 17:42:51 79° E 17:49:13 10° N
COSMOS 2455 2.8 17:37:39 10° SSW 17:43:37 68° ESE 17:48:14 18° NE
PAYLOAD B 4.2 17:39:16 10° SSE 17:44:52 84° ENE 17:50:30 10° NNW
CZ-2C R/B 2.8 17:40:44 10° NNE 17:45:44 45° E 17:50:40 10° S
Cosmos 1500 3.0 17:42:40 10° N 17:46:26 89° WSW 17:50:09 10° S
CZ-4B R/B 3.1 17:42:04 10° SSE 17:47:25 63° ENE 17:52:41 10° N
Cosmos 2026 Rocket 4.0 17:41:49 10° N 17:47:59 82° W 17:54:03 10° S
Cosmos 1151 Rocket 3.2 17:44:11 10° SSE 17:48:21 50° E 17:51:27 17° NNE
Lacrosse 5 rocket 1.9 17:46:08 10° NW 17:49:46 36° NNE 17:50:35 32° NE
Okean O Rocket 1.7 17:47:10 10° SE 17:51:28 50° ENE 17:55:48 10° N
Cosmos 2208 Rocket 4.4 17:54:28 10° S 17:59:33 44° ESE 18:01:39 30° NE
Cosmos 1666 Rocket 3.4 17:56:15 10° N 18:00:44 80° E 18:05:08 10° SSE
CZ-4 R/B 4.4 17:56:44 10° SSE 18:00:46 57° ENE 18:04:50 10° N
Meteor 1-11 Rocket 4.2 17:57:32 10° N 18:02:42 36° ENE 18:05:45 21° ESE
H-2A R/B 2.2 17:58:24 10° S 18:03:34 76° WSW 18:08:38 10° NNW
Cosmos 2150 Rocket 4.4 17:59:02 10° N 18:03:52 38° ENE 18:04:48 35° E
Cosmos 1470 Rocket 3.9 17:59:39 10° N 18:03:55 43° ENE 18:08:10 10° SSE
USA 267 3.5 18:01:04 23° NE 18:05:19 62° NNW 18:11:44 10° WSW
Cosmos 1328 Rocket 3.6 18:01:32 10° S 18:05:52 55° E 18:07:30 34° NE
Cosmos 1655 Rocket 4.2 17:59:48 10° N 18:06:01 49° ENE 18:12:08 10° SSE
Cosmos 2360 Rocket 3.6 18:03:46 10° N 18:07:10 21° NNE 18:07:10 21° NNE
USA 305 3.6 18:04:23 10° WNW 18:08:19 36° N 18:08:46 35° NNE
Landsat 5 3.5 18:08:42 49° E 18:08:51 49° E 18:12:43 10° S
SKYMED 2 3.4 18:12:00 26° NNE 18:14:29 81° ESE 18:18:49 10° SSW
Cosmos 2180 Rocket 4.4 18:08:22 10° S 18:14:39 68° E 18:20:54 10° NNE
Cosmos 841 Rocket 3.8 18:09:50 10° SSW 18:14:57 64° WNW 18:18:54 17° NNE
Cosmos 1666 2.7 18:12:11 10° NNW 18:15:55 74° W 18:19:36 10° S
Feng Yun 1-1 Rocket 4.3 18:11:03 10° SSE 18:16:52 61° ENE 18:22:38 10° N
Meteor 2-8 Rocket 4.3 18:12:07 10° S 18:18:14 70° E 18:24:22 10° NNE
ATLAS CENTAUR R/B 2.9 18:10:49 10° WSW 18:19:13 56° NW 18:20:43 37° NNE
Cosmos 1125 Rocket 3.6 18:16:56 10° NNW 18:22:03 49° ENE 18:22:14 49° ENE
Cosmos 2322 Rocket 2.7 18:23:02 10° NNW 18:27:49 40° NE 18:27:49 40° NE
Cosmos 1980 Rocket 3.2 18:28:56 10° NW 18:34:19 45° WSW 18:39:38 10° S
SL-08 RB Rocket 3.6 18:30:04 10° SSE 18:34:43 88° WSW 18:39:21 10° NNW
Cosmos 1812 3.9 18:32:12 10° SSW 18:35:51 41° WNW 18:37:47 23° NNW
ATLAS 2AS CENTAUR R/B 4.2 18:30:07 10° NW 18:35:52 23° N 18:37:26 21° NNE
ISS -2.3 18:35:13 10° WNW 18:37:58 37° WSW 18:37:58 37° WSW
USA 234 4.4 18:33:37 10° SSE 18:39:41 40° SW 18:45:46 10° WNW
USA 306 3.9 18:36:31 10° NW 18:39:35 36° NNW 18:39:35 36° NNW
CZ-4C R/B 3.3 18:38:03 10° NW 18:45:17 68° SW 18:53:41 10° SSE
SL-16 R/B 2.1 18:40:34 10° NNW 18:46:11 69° NE 18:46:11 69° NE
Cosmos 2082 Rocket 3.0 18:44:15 10° SW 18:49:44 48° NW 18:52:35 26° N
Cosmos 44 Rocket 3.3 18:48:18 10° NW 18:53:09 74° WSW 18:53:09 74° WSW
Cosmos 2333 Rocket 4.1 18:52:36 10° N 18:54:27 18° N 18:54:27 18° N
USA 307 4.5 18:55:17 10° NW 18:57:40 29° NW 18:57:40 29° NW
COSMO-SKYMED 1 4.1 19:00:37 24° NNW 19:02:24 34° WNW 19:06:19 10° SW
ARGOS 4.5 19:00:31 10° SSW 19:05:32 38° W 19:10:34 10° NNW
Cosmos 2298 Rocket 4.4 19:03:38 10° NNW 19:08:54 62° WSW 19:09:27 58° SW
GEOS 3 Rocket 4.1 19:19:06 59° W 19:19:06 59° W 19:23:42 10° NW
Cosmos 1818 4.3 19:13:53 10° NW 19:19:09 49° WSW 19:19:33 48° SW
Cosmos 2219 Rocket 4.4 19:17:12 10° NNW 19:18:11 14° N 19:18:11 14° N
CZ-2C R/B 4.4 19:22:06 13° N 19:25:49 28° WNW 19:30:08 10° WSW
Okean O Rocket 4.2 19:24:55 10° SW 19:28:05 19° W 19:31:17 10° NW
Lacrosse 5 rocket 3.9 19:25:05 10° WNW 19:26:12 18° WNW 19:26:12 18° WNW
COSMOS 2455 4.3 19:24:48 10° W 19:30:03 30° NW 19:31:24 27° NNW
BREEZE-M DEB (TANK) 4.2 19:24:31 10° SW 19:44:57 78° S 19:44:57 78° S
USA 267 4.2 19:48:25 38° NNW 19:48:25 38° NNW 19:53:39 10° WNW
Cosmos 2360 Rocket 4.1 19:47:07 10° NNW 19:48:57 21° NNW 19:48:57 21° NNW
Cosmos 2322 Rocket 4.2 20:07:14 10° NW 20:09:41 23° WNW 20:09:41 23° WNW
